Deming, NM

6:53 AM MST on February 26, 2017 (GMT -0700)
Deming Municipal

Weather History for KDMN - March, 2013

Change the Weather History Date:

Saturday, March 2, 2013

  Actual Average Record
Temperature  
Mean Temperature 50 °F 49 °F  
Max Temperature 71 °F 65 °F 81 °F (2016)
Min Temperature 28 °F 33 °F 20 °F (1964)
Degree Days  
Heating Degree Days 16    
Moisture  
Dew Point 11 °F    
Average Humidity 27    
Maximum Humidity 43    
Minimum Humidity 11    
Precipitation  
Precipitation 0.00 in 0.02 in 0.43 in (1991)
Month to date precipitation 0.00 0.04  
Year to date precipitation 0.29 1.24  
Sea Level Pressure  
Sea Level Pressure 30.23 in    
Wind  
Wind Speed 5 mph (WSW)    
Max Wind Speed 12 mph    
Max Gust Speed 17 mph    
Visibility 10 miles    
Events      
T = Trace of Precipitation, MM = Missing Value Source: NWS Daily Summary

Daily Weather History Graph

Daily Weather History Graph

Search for Another Location

Airport or City:

Trip Planner

Search our weather history database for the weather conditions in past years. The results will help you decide how hot, cold, wet, or windy it might be!

Date:

Astronomy

Mar. 02, 2013 Rise Set
Actual Time 6:36 AM MST 6:09 PM MST
Civil Twilight 6:12 AM MST 6:34 PM MST
Nautical Twilight 5:43 AM MST 7:02 PM MST
Astronomical Twilight 5:15 AM MST 7:30 PM MST
Moon 11:30 PM MST (3/2) 9:27 AM MST (3/2)
Length of Visible Light 12h 21m
Length of Day
11h 32m
Waning Gibbous, 73% of the Moon is Illuminated
Mar 2
Waning Gibbous
Mar 4
Last Quarter
Mar 11
New
Mar 19
First Quarter
Mar 27
Full

Hourly Weather History & Observations

Time (MST) Temp. Windchill Dew Point Humidity Pressure Visibility Wind Dir Wind Speed Gust Speed Precip Events Conditions
12:53 AM 36.0 °F 33.3 °F 5.0 °F 27% 30.27 in 10.0 mi WSW 3.5 mph - N/A   Clear
1:53 AM 28.9 °F 25.2 °F 1.0 °F 30% 30.28 in 10.0 mi West 3.5 mph - N/A   Clear
2:53 AM 30.0 °F 26.5 °F 3.9 °F 33% 30.26 in 10.0 mi WNW 3.5 mph - N/A   Clear
3:53 AM 28.0 °F 21.7 °F 5.0 °F 38% 30.27 in 10.0 mi WNW 5.8 mph - N/A   Clear
4:53 AM 28.9 °F 25.2 °F 3.9 °F 35% 30.28 in 10.0 mi NW 3.5 mph - N/A   Clear
5:53 AM 28.9 °F 25.2 °F 7.0 °F 40% 30.31 in 10.0 mi Variable 3.5 mph - N/A   Clear
6:53 AM 30.0 °F 24.1 °F 10.0 °F 43% 30.34 in 10.0 mi NW 5.8 mph - N/A   Clear
7:53 AM 39.0 °F - 14.0 °F 36% 30.35 in 10.0 mi Calm Calm - N/A   Clear
8:53 AM 48.9 °F - 15.1 °F 26% 30.34 in 10.0 mi Calm Calm - N/A   Clear
9:53 AM 59.0 °F - 18.0 °F 20% 30.32 in 10.0 mi ENE 8.1 mph - N/A   Clear
10:53 AM 62.1 °F - 17.1 °F 18% 30.30 in 10.0 mi East 3.5 mph - N/A   Clear
11:53 AM 64.0 °F - 17.1 °F 16% 30.27 in 10.0 mi Variable 3.5 mph - N/A   Clear
12:53 PM 66.0 °F - 16.0 °F 15% 30.24 in 10.0 mi Variable 4.6 mph - N/A   Clear
1:53 PM 68.0 °F - 16.0 °F 14% 30.22 in 10.0 mi SSW 8.1 mph - N/A   Clear
2:53 PM 69.1 °F - 15.1 °F 13% 30.19 in 10.0 mi SSW 8.1 mph - N/A   Clear
3:53 PM 70.0 °F - 14.0 °F 12% 30.17 in 10.0 mi SSW 6.9 mph - N/A   Clear
4:53 PM 70.0 °F - 12.9 °F 11% 30.15 in 10.0 mi SW 8.1 mph - N/A   Clear
5:53 PM 66.9 °F - 12.0 °F 12% 30.15 in 10.0 mi SSW 4.6 mph - N/A   Clear
6:53 PM 60.1 °F - 12.0 °F 15% 30.17 in 10.0 mi South 5.8 mph - N/A   Clear
7:53 PM 55.0 °F - 12.0 °F 18% 30.15 in 10.0 mi WSW 5.8 mph - N/A   Clear
8:53 PM 50.0 °F - 10.9 °F 21% 30.14 in 10.0 mi SW 6.9 mph - N/A   Clear
9:53 PM 48.9 °F - 12.0 °F 23% 30.12 in 10.0 mi SW 8.1 mph - N/A   Clear
10:53 PM 48.0 °F - 12.0 °F 24% 30.11 in 10.0 mi West 9.2 mph - N/A   Clear
11:53 PM 39.9 °F 35.8 °F 6.1 °F 25% 30.12 in 10.0 mi WNW 5.8 mph - N/A   Clear